Temperature
1 1 1 1 1 1 1 1 1 0 1 1 2 2 2 2 2 2 3 3 3 3 3 3 3 3 3 3 3 3 3 3 3 4 3 3 3 3
-0 0 0 0 0 0 0 0 0 0 -0 1 1 1 2 2 2 2 2 2 2 2 2 2 3 3 3 3 3 3 3 3 3 3 3 3 3 3
-1 -1 -0 -0 -0 -0 -0 -0 -0 -0 -1 -0 0 1 1 1 1 1 1 1 2 2 2 2 2 2 2 2 2 2 2 2 2 2 2 2 2 2
-1 -1 -1 -1 -1 -1 -1 -1 -1 -1 -1 -1 -1 -0 0 0 0 1 1 1 1 1 1 1 1 1 1 2 2 2 2 2 2 2 2 2 2 2
-2 -2 -2 -2 -2 -2 -1 -1 -1 -2 -2 -2 -2 -1 -1 -1 -0 -0 0 0 0 1 1 1 1 1 1 1 1 1 1 1 1 1 1 1 1 1
-2 -2 -2 -2 -2 -2 -2 -2 -2 -2 -2 -3 -2 -2 -2 -1 -1 -1 -1 -0 -0 0 0 0 0 0 0 0 0 0 0 0 1 1 1 1 1 1
-3 -3 -3 -3 -3 -3 -3 -3 -3 -3 -3 -3 -3 -3 -3 -2 -2 -2 -2 -1 -1 -1 -0 -0 -0 -0 -0 -0 -0 -0 -0 -0 -0 -0 -0 -0 -0 -0
-4 -4 -4 -3 -3 -3 -3 -3 -3 -3 -4 -4 -4 -4 -3 -3 -3 -3 -3 -2 -2 -1 -1 -1 -1 -1 -1 -1 -1 -1 -1 -1 -1 -1 -1 -1 -1 -1
-5 -5 -4 -4 -4 -4 -4 -4 -4 -4 -4 -4 -4 -4 -4 -4 -4 -3 -3 -3 -3 -2 -3 -2 -2 -2 -2 -2 -2 -2 -2 -2 -2 -2 -1 -2 -2 -2
-6 -6 -5 -5 -5 -5 -5 -5 -5 -5 -5 -5 -5 -4 -5 -5 -5 -4 -4 -4 -4 -4 -4 -4 -3 -3 -3 -3 -3 -3 -3 -2 -2 -2 -2 -2 -2 -2
-7 -6 -6 -6 -6 -6 -6 -6 -5 -5 -5 -5 -5 -5 -5 -5 -5 -5 -5 -5 -5 -4 -4 -4 -4 -4 -4 -3 -3 -3 -3 -3 -3 -3 -3 -3 -3 -3
-7 -7 -7 -7 -7 -7 -6 -6 -6 -6 -6 -6 -6 -6 -6 -6 -6 -6 -6 -6 -6 -6 -5 -5 -5 -5 -5 -4 -4 -4 -4 -4 -4 -4 -4 -4 -4 -4
-8 -8 -8 -8 -8 -7 -7 -7 -7 -7 -7 -7 -7 -7 -7 -6 -6 -6 -6 -6 -6 -6 -6 -6 -6 -6 -6 -6 -5 -5 -5 -5 -5 -5 -5 -5 -5 -5
-9 -9 -9 -9 -8 -8 -8 -8 -8 -8 -8 -8 -8 -8 -7 -7 -7 -7 -7 -7 -7 -7 -7 -7 -7 -7 -7 -7 -6 -6 -6 -6 -6 -6 -5 -5 -5 -5
-10 -9 -9 -9 -9 -9 -9 -9 -9 -9 -8 -8 -8 -8 -8 -8 -8 -8 -8 -8 -8 -8 -8 -8 -8 -7 -7 -7 -7 -7 -7 -6 -6 -6 -6 -6 -6 -6
-10 -10 -10 -10 -10 -10 -9 -9 -9 -9 -9 -9 -9 -9 -9 -9 -9 -9 -9 -9 -9 -8 -8 -8 -8 -8 -8 -8 -8 -8 -7 -7 -7 -7 -7 -7 -7 -7
-11 -11 -11 -10 -10 -10 -10 -10 -10 -10 -10 -10 -10 -10 -10 -10 -10 -10 -10 -9 -9 -9 -9 -9 -9 -9 -8 -8 -8 -8 -8 -8 -8 -8 -8 -8 -7 -7
-11 -11 -11 -11 -11 -11 -11 -11 -11 -11 -11 -11 -11 -11 -11 -11 -10 -10 -10 -10 -10 -10 -10 -9 -9 -9 -9 -9 -9 -9 -9 -9 -8 -9 -9 -9 -8 -8
-12 -12 -12 -12 -12 -12 -12 -11 -11 -11 -11 -11 -11 -11 -11 -11 -11 -11 -11 -11 -11 -11 -10 -10 -10 -10 -10 -10 -10 -9 -9 -9 -9 -9 -9 -9 -9 -9
-12 -12 -12 -12 -12 -12 -12 -12 -12 -12 -12 -12 -12 -12 -12 -12 -12 -12 -12 -12 -12 -11 -11 -11 -11 -11 -11 -11 -10 -10 -10 -10 -10 -10 -10 -10 -9 -9
-13 -13 -13 -13 -13 -13 -12 -12 -12 -12 -12 -13 -12 -12 -12 -13 -12 -12 -12 -12 -12 -12 -12 -11 -11 -11 -11 -11 -11 -11 -10 -10 -10 -10 -10 -10 -10 -10
-13 -13 -13 -13 -13 -13 -13 -13 -13 -13 -13 -13 -13 -13 -13 -13 -13 -13 -13 -13 -12 -12 -12 -12 -11 -11 -12 -12 -12 -11 -11 -10 -10 -10 -11 -11 -11 -11
-13 -13 -13 -13 -13 -13 -13 -13 -13 -13 -13 -13 -13 -13 -13 -13 -13 -13 -13 -13 -13 -13 -13 -12 -12 -12 -12 -12 -12 -12 -12 -11 -11 -11 -10 -10 -11 -11
Wind_Speed
3 3 3 3 2 2 1 2 3 3 3 3 1 2 3 3 5 5 5 7 8 8 8 8 8 8 8 8 8 8 7 8 8 8 8 7 7 7
3 3 3 3 2 2 2 2 2 3 4 3 2 2 3 4 6 6 7 8 9 9 9 9 9 8 8 8 8 8 8 8 8 8 8 8 8 8
3 4 4 3 3 3 3 3 3 3 4 4 2 2 3 3 5 6 7 8 8 9 10 10 10 9 10 10 9 9 9 8 9 9 9 9 9 9
3 4 4 3 3 3 3 3 4 3 4 5 4 3 3 4 4 4 6 7 8 9 10 10 11 11 11 11 10 10 10 9 9 10 10 10 10 10
4 4 5 4 4 4 4 4 3 4 3 4 4 3 3 3 3 4 5 5 7 8 10 11 12 12 12 12 11 10 10 10 11 11 11 11 11 11
4 4 4 5 5 5 5 4 4 4 3 4 4 3 3 3 2 3 4 4 5 6 8 9 11 12 12 12 12 11 11 12 12 12 11 11 12 11
4 4 5 6 7 6 5 4 4 4 4 4 5 4 4 3 3 3 4 4 5 5 4 6 7 8 10 12 12 13 13 13 13 12 12 13 12 12
5 5 5 6 7 8 10 9 7 6 6 5 5 6 6 5 4 4 3 4 5 3 3 5 6 6 8 10 12 13 13 13 13 13 13 13 13 13
5 5 5 5 6 5 7 9 9 10 9 7 7 7 6 5 5 5 5 5 6 4 3 6 4 6 8 11 13 14 14 14 14 14 14 14 13 13
5 5 6 6 6 6 5 5 5 6 7 7 6 7 7 6 6 6 6 6 5 4 4 5 4 5 6 9 12 14 14 14 14 14 14 14 14 13
5 5 5 6 8 8 6 6 6 6 8 10 11 11 12 12 9 4 4 4 6 5 3 4 3 3 4 5 10 13 14 14 14 15 14 14 14 13
4 4 6 7 8 8 6 5 7 6 5 6 7 8 8 9 10 6 5 5 5 5 3 3 3 2 3 3 5 8 10 12 13 14 13 13 13 10
4 4 4 8 9 9 7 5 8 6 4 5 5 5 4 4 5 6 5 5 5 5 3 2 3 3 4 4 3 4 5 6 7 9 11 12 12 10
4 4 5 8 9 9 8 8 9 7 4 4 5 5 4 4 4 5 6 7 8 7 6 5 4 4 4 5 5 3 3 5 5 6 7 10 11 11
4 7 8 9 9 7 9 9 7 4 4 4 5 5 4 4 4 4 5 6 7 8 8 7 5 5 5 5 5 4 4 4 5 5 5 6 6 6
5 6 8 9 8 7 7 6 4 4 4 4 4 4 3 3 4 3 4 4 4 5 6 8 7 6 6 6 6 6 5 4 4 5 5 5 7 8
4 3 3 3 3 3 4 4 3 3 4 4 4 4 4 4 4 3 3 4 4 5 5 4 5 6 7 6 6 6 5 5 5 4 4 6 6 7
4 2 3 3 4 4 4 3 3 3 3 4 4 4 4 4 4 4 4 4 5 5 5 4 3 4 4 5 7 7 6 6 5 5 5 6 7 6
4 3 4 4 4 4 4 4 3 3 3 3 4 4 4 4 4 5 5 5 6 6 5 4 4 4 6 7 5 6 5 5 4 4 5 5 7 7
3 3 4 4 4 4 4 4 3 3 3 3 3 4 4 4 5 5 5 5 6 6 5 4 4 5 7 7 6 5 7 5 5 6 6 5 6 9
4 4 4 4 4 4 4 4 3 3 3 3 4 4 4 4 5 5 5 8 7 6 7 6 6 7 5 3 5 5 5 8 8 6 5 5 6 6
4 4 4 4 4 4 4 4 4 4 4 4 4 4 4 4 5 6 6 6 6 6 7 6 4 4 4 6 7 7 6 6 8 11 11 10 6 5
5 4 4 4 4 4 4 4 4 4 4 4 4 4 4 4 5 5 6 6 7 7 7 6 5 4 6 6 7 7 7 6 5 5 6 10 12 14
Wind_Direction
231 234 238 249 253 247 244 199 198 233 252 243 232 215 227 242 256 263 255 246 246 251 255 257 255 254 257 261 266 267 271 275 269 267 270 271 270 271
237 228 239 245 244 244 238 226 209 216 245 252 251 258 256 263 263 262 264 253 248 249 253 254 251 250 252 255 259 263 266 270 269 265 265 269 268 267
244 231 239 239 235 237 234 226 228 218 244 272 278 278 260 262 271 266 263 257 244 245 250 250 248 250 251 251 254 257 258 262 264 263 265 267 269 266
247 238 241 245 242 239 234 234 233 228 232 257 270 269 263 254 256 264 269 261 248 244 248 250 249 249 251 251 250 252 253 257 259 260 262 264 265 267
246 243 243 241 247 246 237 235 239 246 238 249 267 269 272 267 270 271 272 265 255 248 248 249 250 251 252 252 250 251 252 254 257 257 259 261 264 265
256 252 247 241 243 245 243 238 238 240 243 247 259 266 268 270 262 274 279 268 259 253 253 255 254 254 253 249 249 251 254 256 255 255 256 259 262 264
264 262 257 254 255 253 250 241 237 238 237 242 251 258 256 262 255 259 268 277 269 243 236 249 252 250 250 249 248 250 254 254 252 252 254 257 260 264
270 270 266 259 258 260 259 258 252 241 235 235 245 251 254 253 253 254 259 277 275 239 230 255 246 246 246 244 247 251 253 255 254 254 255 256 259 261
264 266 267 267 263 260 264 267 264 260 251 241 243 250 256 253 252 258 259 260 264 256 266 265 245 245 245 245 247 251 254 254 254 256 257 257 259 261
267 264 263 262 258 258 261 263 261 261 263 261 253 257 262 259 251 253 256 269 278 260 237 260 254 250 251 247 247 248 251 252 254 257 259 259 261 262
274 271 270 265 267 263 256 259 267 270 271 269 271 272 270 269 262 264 264 267 274 270 242 242 257 271 260 247 244 247 249 250 253 256 259 260 262 262
277 278 278 278 279 271 251 247 258 266 271 281 280 280 279 274 266 250 241 252 267 269 238 230 256 270 278 258 238 240 245 253 258 258 259 261 263 260
274 274 279 281 280 277 270 255 261 268 262 266 272 271 271 268 267 262 253 252 255 260 254 243 261 252 252 279 278 253 242 248 255 257 258 262 264 262
275 279 280 284 283 280 275 275 280 277 258 256 262 264 265 264 267 265 261 261 260 260 255 250 257 251 252 269 275 269 254 258 254 253 257 264 266 266
283 283 283 282 283 281 279 281 281 275 264 257 257 260 262 265 269 274 271 270 273 270 263 256 254 254 247 254 262 266 275 268 247 242 250 252 255 257
289 288 291 290 287 284 282 279 268 258 261 259 260 264 266 264 263 263 268 266 268 272 267 260 254 250 258 257 255 262 255 250 246 241 244 255 264 258
291 285 287 295 289 287 282 273 267 265 265 258 260 264 264 263 266 262 264 269 263 267 270 269 261 259 258 255 257 254 254 255 248 244 250 262 262 260
288 276 273 274 274 277 278 275 272 272 272 271 267 265 266 267 270 271 265 264 264 263 264 266 274 288 288 277 246 248 251 255 253 250 247 257 267 263
276 266 264 266 269 271 276 273 272 272 270 271 269 267 269 270 270 272 269 269 270 268 264 259 255 256 267 275 270 243 249 257 257 257 252 254 264 265
272 269 266 266 267 266 269 273 272 273 273 273 270 267 265 270 273 271 269 266 271 275 271 262 249 247 251 262 270 275 258 249 249 257 262 264 267 274
270 269 267 265 267 268 268 269 266 267 269 270 269 266 265 266 269 270 271 273 271 270 268 264 259 269 271 265 268 269 264 255 255 257 255 263 272 270
272 266 268 264 262 264 266 266 264 263 265 265 267 266 265 266 267 266 267 270 268 267 271 273 271 270 258 254 260 267 275 280 275 272 263 254 250 247
279 276 276 271 265 262 261 261 260 262 262 263 266 267 266 267 268 270 271 270 271 271 273 277 274 266 259 254 258 265 269 271 272 275 274 272 270 269
Height
1503 1504 1506 1507 1508 1509 1510 1512 1513 1511 1511 1512 1513 1514 1515 1517 1518 1518 1519 1520 1521 1521 1522 1522 1522 1523 1523 1523 1524 1524 1525 1525 1526 1526 1527 1527 1528 1528
1498 1499 1501 1502 1503 1504 1506 1507 1507 1508 1507 1507 1509 1510 1511 1512 1513 1513 1514 1515 1515 1516 1516 1517 1517 1517 1518 1518 1518 1519 1519 1519 1520 1521 1521 1522 1522 1523
1494 1495 1496 1497 1498 1499 1501 1501 1502 1503 1503 1502 1504 1505 1506 1506 1507 1508 1509 1509 1509 1510 1511 1511 1512 1512 1512 1512 1513 1513 1514 1514 1514 1515 1516 1516 1517 1517
1489 1490 1491 1492 1493 1494 1495 1496 1497 1498 1498 1497 1498 1499 1500 1501 1501 1502 1502 1503 1504 1504 1505 1505 1506 1506 1506 1506 1507 1507 1508 1508 1508 1509 1510 1511 1511 1511
1484 1485 1486 1487 1488 1489 1490 1491 1492 1493 1493 1493 1493 1494 1494 1495 1495 1496 1496 1497 1498 1498 1499 1499 1500 1500 1500 1501 1501 1501 1501 1502 1502 1503 1504 1504 1505 1505
1479 1480 1481 1482 1483 1484 1484 1485 1486 1487 1488 1488 1488 1488 1489 1489 1490 1490 1490 1491 1491 1492 1492 1493 1494 1494 1494 1494 1495 1495 1496 1496 1496 1497 1498 1498 1499 1499
1474 1475 1476 1477 1477 1478 1479 1480 1481 1481 1482 1482 1482 1483 1483 1483 1484 1484 1484 1484 1484 1485 1486 1486 1487 1487 1487 1488 1488 1489 1489 1490 1490 1491 1491 1492 1492 1493
1469 1469 1470 1471 1472 1473 1474 1474 1475 1476 1476 1477 1476 1477 1477 1478 1479 1479 1479 1478 1477 1479 1480 1480 1481 1480 1481 1482 1482 1483 1484 1484 1484 1485 1485 1486 1486 1486
1464 1464 1464 1465 1466 1467 1468 1468 1469 1470 1471 1472 1471 1471 1471 1472 1473 1473 1473 1473 1472 1473 1473 1472 1473 1473 1475 1475 1476 1477 1477 1478 1478 1479 1479 1479 1479 1480
1459 1459 1459 1460 1461 1461 1462 1462 1462 1463 1464 1465 1465 1465 1466 1467 1468 1468 1468 1467 1466 1467 1468 1466 1466 1467 1468 1469 1469 1470 1471 1471 1472 1472 1473 1473 1473 1473
1454 1454 1454 1455 1455 1456 1456 1456 1456 1456 1458 1458 1459 1459 1460 1461 1462 1462 1461 1461 1459 1459 1461 1461 1460 1460 1461 1461 1462 1463 1464 1465 1465 1466 1466 1466 1466 1466
1449 1449 1449 1450 1450 1451 1451 1451 1450 1451 1451 1452 1452 1453 1453 1454 1455 1455 1455 1455 1454 1453 1454 1455 1454 1455 1453 1453 1455 1456 1457 1458 1458 1458 1459 1459 1459 1459
1444 1444 1444 1445 1445 1445 1446 1445 1445 1446 1446 1446 1446 1446 1447 1447 1448 1448 1449 1449 1448 1447 1449 1449 1448 1449 1449 1447 1448 1449 1450 1450 1451 1451 1451 1452 1452 1452
1440 1440 1440 1440 1440 1440 1440 1440 1441 1441 1440 1440 1440 1440 1440 1441 1441 1442 1442 1442 1442 1442 1443 1444 1443 1443 1443 1441 1440 1441 1442 1443 1443 1443 1444 1444 1445 1445
1435 1435 1435 1435 1435 1435 1435 1435 1435 1435 1435 1435 1434 1435 1435 1435 1436 1436 1436 1436 1436 1436 1436 1437 1437 1437 1437 1435 1434 1434 1435 1435 1436 1436 1437 1437 1437 1437
1431 1430 1430 1430 1430 1430 1430 1430 1430 1430 1430 1429 1429 1430 1430 1430 1430 1430 1430 1430 1429 1429 1430 1430 1430 1430 1429 1429 1429 1428 1428 1428 1429 1429 1429 1429 1429 1429
1426 1426 1425 1425 1425 1424 1424 1424 1425 1425 1425 1424 1424 1424 1424 1424 1424 1425 1425 1424 1424 1423 1422 1423 1424 1424 1423 1423 1422 1421 1421 1421 1422 1423 1422 1421 1421 1422
1422 1421 1420 1420 1420 1420 1419 1419 1419 1419 1419 1419 1419 1419 1419 1419 1419 1419 1419 1419 1418 1417 1417 1417 1417 1417 1416 1416 1417 1415 1415 1415 1415 1416 1416 1414 1413 1414
1417 1416 1416 1416 1416 1415 1415 1415 1415 1415 1415 1415 1414 1414 1414 1414 1414 1414 1414 1413 1413 1412 1412 1412 1412 1412 1410 1408 1408 1411 1410 1409 1409 1409 1409 1408 1407 1407
1413 1412 1412 1411 1411 1411 1411 1411 1410 1410 1410 1410 1410 1410 1409 1409 1409 1408 1408 1408 1407 1407 1406 1406 1406 1406 1405 1404 1403 1403 1404 1403 1403 1402 1402 1401 1401 1401
1408 1408 1407 1407 1407 1407 1406 1406 1405 1405 1405 1405 1405 1405 1404 1404 1404 1403 1403 1402 1402 1401 1400 1400 1400 1401 1400 1399 1397 1395 1396 1397 1397 1396 1396 1395 1394 1393
1403 1403 1402 1402 1402 1401 1401 1401 1400 1400 1400 1400 1399 1399 1399 1399 1399 1398 1398 1397 1397 1396 1395 1394 1394 1395 1394 1392 1390 1389 1389 1390 1390 1391 1390 1389 1388 1385
1398 1398 1397 1396 1396 1396 1396 1395 1395 1395 1395 1395 1394 1394 1394 1394 1393 1393 1392 1392 1391 1390 1389 1388 1388 1388 1387 1386 1385 1383 1383 1383 1383 1383 1383 1383 1383 1382